{"data":{"norad_id":53438,"epoch":"2026-09-19T03:05:33.349344Z","epoch_age_seconds":193877,"freshness":"STALE","line1":"1 53438U 22097BC  26262.12885821  .00000475  00000+0  25203-4 0  9997","line2":"2 53438  53.1603 299.8548 0001206  67.6323 292.4807 15.34390582228211","mean_motion":15.34390582,"eccentricity":0.0001206,"inclination_deg":53.1603,"raan_deg":299.8548,"arg_perigee_deg":67.6323,"mean_anomaly_deg":292.4807,"bstar":2.5203e-5,"rev_number":22821,"period_min":93.848334113406,"perigee_km":461.90622392218,"apogee_km":463.55624133989,"semimajor_km":6840.868232631,"source":"CELESTRAK","updated_at":"2026-09-20T09:00:40.234145Z"}}